Telluride, CO

5:23 AM MDT on August 21, 2017 (GMT -0600)
Telluride Regional

Weather History for KTEX - May, 2014

Change the Weather History Date:

Sunday, May 18, 2014

  Actual Average Record
Temperature  
Mean Temperature 56 °F -  
Max Temperature 66 °F 57 °F 69 °F (2006)
Min Temperature 46 °F 37 °F 24 °F (2017)
Degree Days  
Heating Degree Days 9    
Growing Degree Days 6 (Base 50)    
Moisture  
Dew Point 15 °F    
Average Humidity 22    
Maximum Humidity 40    
Minimum Humidity 11    
Precipitation  
Precipitation 0.00 in - - ()
Sea Level Pressure  
Sea Level Pressure 30.12 in    
Wind  
Wind Speed 7 mph (South)    
Max Wind Speed 24 mph    
Max Gust Speed 36 mph    
Visibility 10 miles    
Events      
Averages and records for this station are not official NWS values.
T = Trace of Precipitation, MM = Missing Value Source: NWS Daily Summary

Daily Weather History Graph

Daily Weather History Graph

Search for Another Location

Airport or City:

Trip Planner

Search our weather history database for the weather conditions in past years. The results will help you decide how hot, cold, wet, or windy it might be!

Date:

Astronomy

May. 18, 2014 Rise Set
Actual Time 5:58 AM MDT 8:17 PM MDT
Civil Twilight 5:29 AM MDT 8:47 PM MDT
Nautical Twilight 4:52 AM MDT 9:24 PM MDT
Astronomical Twilight 4:12 AM MDT 10:04 PM MDT
Moon No Moon Rise 9:50 AM MDT (5/18)
Length of Visible Light 15h 18m
Length of Day
14h 18m
Waning Gibbous, 80% of the Moon is Illuminated
May 18
Waning Gibbous
May 21
Last Quarter
May 28
New
Jun 5
First Quarter
Jun 12
Full

Hourly Weather History & Observations

Time (MDT) Temp. Windchill Dew Point Humidity Pressure Visibility Wind Dir Wind Speed Gust Speed Precip Events Conditions
12:17 AM 48.2 °F - 23.0 °F 37% 30.20 in 10.0 mi SE 4.6 mph - N/A   Overcast
12:38 AM 48.2 °F - 21.2 °F 34% 30.20 in 10.0 mi ESE 4.6 mph - N/A   Overcast
12:56 AM 50.0 °F - 23.0 °F 35% 30.19 in 10.0 mi SSE 6.9 mph - N/A   Overcast
1:16 AM 48.2 °F - 23.0 °F 37% 30.18 in 10.0 mi SE 6.9 mph - N/A   Mostly Cloudy
1:37 AM 50.0 °F - 21.2 °F 32% 30.18 in 10.0 mi SE 6.9 mph - N/A   Scattered Clouds
1:58 AM 48.2 °F - 23.0 °F 37% 30.17 in 10.0 mi ESE 4.6 mph - N/A   Mostly Cloudy
2:56 AM 48.2 °F - 21.2 °F 34% 30.16 in 10.0 mi ESE 6.9 mph - N/A   Mostly Cloudy
3:17 AM 48.2 °F - 21.2 °F 34% 30.16 in 10.0 mi ESE 5.8 mph - N/A   Scattered Clouds
3:37 AM 48.2 °F - 23.0 °F 37% 30.16 in 10.0 mi ESE 5.8 mph - N/A   Scattered Clouds
3:56 AM 48.2 °F - 23.0 °F 37% 30.16 in 10.0 mi SE 5.8 mph - N/A   Scattered Clouds
4:16 AM 48.2 °F - 23.0 °F 37% 30.16 in 10.0 mi ESE 5.8 mph - N/A   Mostly Cloudy
4:39 AM 46.4 °F 42.9 °F 23.0 °F 40% 30.16 in 10.0 mi SE 6.9 mph - N/A   Scattered Clouds
4:56 AM 46.4 °F 43.5 °F 23.0 °F 40% 30.16 in 10.0 mi ESE 5.8 mph - N/A   Scattered Clouds
5:16 AM 48.2 °F - 23.0 °F 37% 30.16 in 10.0 mi ESE 4.6 mph - N/A   Scattered Clouds
6:16 AM 46.4 °F 41.9 °F 21.2 °F 37% 30.16 in 10.0 mi ESE 9.2 mph - N/A   Clear
6:39 AM 48.2 °F - 21.2 °F 34% 30.16 in 10.0 mi SE 3.5 mph - N/A   Clear
6:56 AM 48.2 °F - 21.2 °F 34% 30.16 in 10.0 mi ESE 4.6 mph - N/A   Clear
7:16 AM 48.2 °F - 21.2 °F 34% 30.16 in 10.0 mi ESE 5.8 mph - N/A   Clear
7:56 AM 51.8 °F - 23.0 °F 33% 30.16 in 10.0 mi ESE 4.6 mph - N/A   Clear
8:18 AM 53.6 °F - 23.0 °F 30% 30.16 in 10.0 mi Calm Calm - N/A   Clear
8:38 AM 55.4 °F - 23.0 °F 29% 30.16 in 10.0 mi Calm Calm - N/A   Clear
8:56 AM 57.2 °F - 21.2 °F 25% 30.16 in 10.0 mi Calm Calm - N/A   Clear
9:16 AM 60.8 °F - 15.8 °F 17% 30.16 in 10.0 mi Calm Calm - N/A   Clear
9:56 AM 60.8 °F - 17.6 °F 19% 30.15 in 10.0 mi Calm Calm - N/A   Clear
10:16 AM 62.6 °F - 17.6 °F 18% 30.14 in 10.0 mi Calm Calm - N/A   Clear
10:36 AM 62.6 °F - 15.8 °F 16% 30.14 in 10.0 mi SE 4.6 mph - N/A   Clear
10:56 AM 62.6 °F - 14.0 °F 15% 30.14 in 10.0 mi SW 8.1 mph - N/A   Clear
11:56 AM 64.4 °F - 12.2 °F 13% 30.13 in 10.0 mi SW 9.2 mph 27.6 mph N/A   Clear
12:18 PM 64.4 °F - 12.2 °F 13% 30.12 in 10.0 mi WSW 12.7 mph 25.3 mph N/A   Clear
12:36 PM 64.4 °F - 12.2 °F 13% 30.12 in 10.0 mi SSW 9.2 mph 28.8 mph N/A   Clear
12:56 PM 64.4 °F - 10.4 °F 12% 30.11 in 10.0 mi SSW 11.5 mph 26.5 mph N/A   Clear
1:17 PM 66.2 °F - 12.2 °F 12% 30.11 in 10.0 mi SSW 9.2 mph 21.9 mph N/A   Clear
1:36 PM 64.4 °F - 10.4 °F 12% 30.11 in 10.0 mi WSW 19.6 mph 29.9 mph N/A   Clear
1:56 PM 64.4 °F - 10.4 °F 12% 30.11 in 10.0 mi SW 13.8 mph 23.0 mph N/A   Clear
2:36 PM 64.4 °F - 12.2 °F 13% 30.11 in 10.0 mi WSW 12.7 mph 26.5 mph N/A   Clear
2:56 PM 64.4 °F - 12.2 °F 13% 30.11 in 10.0 mi WSW 5.8 mph 24.2 mph N/A   Clear
3:16 PM 62.6 °F - 12.2 °F 14% 30.10 in 10.0 mi WSW 5.8 mph 20.7 mph N/A   Clear
3:36 PM 62.6 °F - 12.2 °F 14% 30.10 in 10.0 mi SSE 12.7 mph 26.5 mph N/A   Clear
3:56 PM 62.6 °F - 12.2 °F 14% 30.09 in 10.0 mi SSE 11.5 mph 17.3 mph N/A   Clear
4:36 PM 64.4 °F - 14.0 °F 14% 30.09 in 10.0 mi SE 4.6 mph - N/A   Clear
4:56 PM 64.4 °F - 12.2 °F 13% 30.08 in 10.0 mi South 13.8 mph 20.7 mph N/A   Clear
5:16 PM 64.4 °F - 10.4 °F 12% 30.07 in 10.0 mi SW 15.0 mph 24.2 mph N/A   Clear
5:36 PM 64.4 °F - 10.4 °F 12% 30.06 in 10.0 mi SW 24.2 mph 35.7 mph N/A   Clear
5:58 PM 64.4 °F - 12.2 °F 13% 30.07 in 10.0 mi SSE 5.8 mph 9.2 mph N/A   Scattered Clouds
6:16 PM 64.4 °F - 12.2 °F 13% 30.06 in 10.0 mi SSE 5.8 mph 20.7 mph N/A   Scattered Clouds
6:36 PM 64.4 °F - 12.2 °F 13% 30.05 in 10.0 mi South 10.4 mph 18.4 mph N/A   Clear
7:16 PM 64.4 °F - 12.2 °F 13% 30.04 in 10.0 mi South 5.8 mph 29.9 mph N/A   Clear
7:36 PM 64.4 °F - 12.2 °F 13% 30.04 in 10.0 mi South 8.1 mph 16.1 mph N/A   Clear
8:16 PM 62.6 °F - 10.4 °F 13% 30.04 in 10.0 mi SW 6.9 mph 24.2 mph N/A   Clear
8:37 PM 62.6 °F - 8.6 °F 12% 30.05 in 10.0 mi SSW 16.1 mph 23.0 mph N/A   Clear
8:59 PM 60.8 °F - 6.8 °F 12% 30.05 in 10.0 mi SSW 11.5 mph 17.3 mph N/A   Clear
9:16 PM 60.8 °F - 8.6 °F 13% 30.05 in 10.0 mi South 6.9 mph 12.7 mph N/A   Clear
9:57 PM 60.8 °F - 8.6 °F 13% 30.06 in 10.0 mi South 6.9 mph - N/A   Clear
10:16 PM 57.2 °F - 8.6 °F 14% 30.07 in 10.0 mi SSW 6.9 mph - N/A   Clear
10:36 PM 59.0 °F - 6.8 °F 13% 30.08 in 10.0 mi SSW 8.1 mph 20.7 mph N/A   Clear
10:56 PM 57.2 °F - 6.8 °F 13% 30.08 in 10.0 mi SW 12.7 mph 20.7 mph N/A   Clear
11:16 PM 57.2 °F - 6.8 °F 13% 30.09 in 10.0 mi SSW 4.6 mph 21.9 mph N/A   Clear
11:39 PM 57.2 °F - 3.2 °F 11% 30.10 in 10.0 mi South 6.9 mph - N/A   Clear